[[{"header":{"parameterUnit":"m.s-1","parameterCategory":2,"la1":30.2991,"la2":30.254,"lo1":-89.0895,"lo2":-89.0444,"dy":0.0017,"dx":0.0017,"nx":28,"ny":28,"refTime":"2023-08-19T03:00:00:Z","depth":"0","parameterNumber":2,"parameterNumberName":"U-component_of_CURRENTS"},"data":[0,0,0,0,0,0,0,0,0,0,0,0,0,0,0,0,0,0,0,0,0,0,0,0,0,0,0,0,0,0,0,0,0,0,0,0,0,0,0,0,0,0,0,0,0,0,0,0,0,0,0,0,0,0,0,0,0,0,0.3429,0.343,0,0.3504,0.3505,0.3506,0.3523,0.3522,0.3522,0.3521,0.356,0.3562,0.3563,0,0,0,0,0,0,0,0,0,0,0,0,0,0.337,0.3371,0.3429,0.343,0.3431,0.3504,0.3505,0.3506,0.3523,0.3522,0.3522,0.3521,0.3559,0.3561,0.3563,0,0,0,0,0,0,0,0,0,0,0,0,0,0.3416,0.3371,0.3429,0.3447,0.345,0.3504,0.3505,0.3507,0.3523,0.3522,0.3521,0.3521,0.3559,0.3561,0.3564,0.3597,0,0,0.3571,0.3572,0,0,0,0,0,0,0,0,0.3413,0.3418,0.3444,0.3446,0.3449,0.3503,0.3499,0.3535,0.3523,0.3496,0.3521,0.352,0.3538,0.3542,0.356,0.3598,0.36,0.3571,0.3573,0.3574,0.3574,0,0,0,0,0,0,0,0.341,0.3415,0.3459,0.3445,0.3448,0.3476,0.3481,0.3506,0.3521,0.3498,0.35,0.3507,0.3539,0.3557,0.356,0.3601,0.3571,0.3573,0.3575,0.3576,0.3738,0.3741,0,0,0,0,0,0,0.3397,0.3412,0.3457,0.3462,0.3428,0.3477,0.3483,0.3487,0.3522,0.3526,0.3508,0.3508,0.3554,0.3558,0.3562,0.3645,0.3574,0.3576,0.3577,0.3735,0.3739,0.3742,0,0,0,0,0,0,0.3395,0.34,0.3454,0.3438,0.3447,0.3479,0.3483,0.3489,0.3512,0.3529,0.3533,0.3525,0.3553,0.3558,0.3608,0.3644,0.3577,0.3579,0.3732,0.3737,0.374,0.3784,0,0,0,0,0,0,0.3393,0.3399,0.3401,0.3437,0.3447,0.3487,0.3484,0.3491,0.3517,0.3518,0.3545,0.3548,0.3553,0.3605,0.3611,0.3646,0.3581,0.3728,0.3734,0.3739,0.3778,0.3789,0.3798,0,0,0,0,0,0.3391,0.3391,0.34,0.3406,0.3448,0.3488,0.3496,0.3516,0.3519,0.3533,0.3566,0.3547,0.3643,0.3609,0.3615,0.3652,0.3726,0.3732,0.3739,0.3774,0.3787,0.3797,0,0,0,0,0,0,0.3379,0.3394,0.3405,0.3414,0.345,0.349,0.3499,0.3523,0.3562,0.3558,0.3579,0.3585,0.3659,0.3651,0.3613,0.3721,0.3684,0.3692,0.3709,0.3721,0.373,0.37,0.3583,0,0,0,0,0,0.3375,0.3372,0.3409,0.342,0.3429,0.3469,0.3489,0.3507,0.3544,0.3559,0.3588,0.3626,0.3692,0.3698,0.3751,0.3788,0.3822,0.3821,0.3831,0.3838,0.3822,0.3935,0.3953,0.3763,0.3763,0.3763,0,0,0.3378,0.3384,0.3386,0.3416,0.3438,0.3468,0.3478,0.3505,0.3541,0.3557,0.3611,0.3671,0.3719,0.3786,0.3814,0.3774,0.3917,0.3847,0.3852,0.3832,0.3943,0.3962,0.3978,0.3768,0.3767,0.3766,0,0,0.3377,0.3381,0.3379,0.3406,0.3436,0.3464,0.3474,0.3523,0.3548,0.3612,0.3659,0.3732,0.3795,0.3848,0.3882,0.3971,0.3987,0.3993,0.3985,0.4096,0.4112,0.4126,0.4213,0.4234,0.3969,0.3969,0.3969,0,0.3381,0.3385,0.3391,0.3405,0.3425,0.3463,0.3485,0.3527,0.3595,0.3627,0.3627,0.3792,0.3827,0.3934,0.3966,0.399,0.4048,0.3932,0.4106,0.4121,0.4135,0.422,0.4243,0.3972,0.3972,0.3971,0.3971,0,0.3379,0.3395,0.3397,0.3422,0.3447,0.3471,0.3521,0.3561,0.3598,0.3651,0.3767,0.3842,0.3932,0.397,0.3987,0.4113,0.4125,0.4129,0.4068,0.4156,0.4241,0.4264,0.3976,0.3975,0.3974,0.3973,0,0,0.3369,0.3389,0.3392,0.3406,0.3454,0.3473,0.3528,0.3595,0.3635,0.3723,0.3798,0.3927,0.3976,0.4019,0.4076,0.4146,0.4303,0.4163,0.4167,0.4232,0.4546,0.4471,0.4488,0.4345,0.4348,0.4352,0.4573,0,0.3373,0.3382,0.3397,0.3434,0.3452,0.3494,0.354,0.3605,0.3671,0.3754,0.3858,0.3965,0.3995,0.4052,0.4138,0.4277,0.4363,0.4241,0.4464,0.447,0.4379,0.4512,0.432,0.4493,0.4596,0.4599,0.4602,0,0.3381,0.3382,0.3396,0.3432,0.344,0.3466,0.3528,0.3579,0.3701,0.3759,0.3879,0.3975,0.413,0.4129,0.4393,0.432,0.4432,0.4517,0.4528,0.4448,0.4437,0.4421,0.4531,0.4324,0.4638,0.4635,0.4632,0,0.3367,0.3393,0.3393,0.3408,0.3451,0.3462,0.3489,0.3581,0.3624,0.3777,0.3838,0.4034,0.4138,0.4323,0.45,0.4475,0.4762,0.4757,0.4796,0.4792,0.4661,0.4638,0.4574,0.4939,0.4938,0.4937,0.4937,0,0.3382,0.3394,0.338,0.3388,0.3391,0.3429,0.346,0.3522,0.3616,0.3686,0.3843,0.3944,0.4191,0.4376,0.4535,0.4738,0.4814,0.4819,0.4855,0.4672,0.4649,0.4485,0.4404,0.4946,0.4944,0.4942,0.4941,0,0.3402,0.3392,0.3394,0.3394,0.339,0.3393,0.342,0.3452,0.3549,0.3647,0.3705,0.3918,0.4161,0.4384,0.4683,0.4769,0.4835,0.5019,0.477,0.4771,0.458,0.451,0.4449,0.4342,0.5116,0.5116,0.5115,0,0.3418,0.3417,0.338,0.3359,0.3358,0.3357,0.336,0.3422,0.346,0.3632,0.3682,0.3922,0.4079,0.4465,0.469,0.4963,0.4807,0.4902,0.4808,0.4551,0.4503,0.4369,0.4273,0.4677,0.4673,0.467,0.4668,0,0.3453,0.3426,0.3412,0.3355,0.333,0.3302,0.3308,0.3324,0.3416,0.3494,0.3626,0.3757,0.4106,0.4269,0.4583,0.4752,0.4616,0.4842,0.4658,0.4216,0.3988,0.3905,0.4535,0.4639,0.4642,0.4644,0.4646,0.4647,0.3471,0.3449,0.3402,0.3345,0.3305,0.3244,0.3196,0.3226,0.3255,0.3336,0.3512,0.3619,0.3833,0.4252,0.4383,0.44,0.4466,0.43,0.4266,0.4175,0.3954,0.4499,0.458,0.4582,0.4584,0.4586,0.4588,0,0.3477,0.344,0.3393,0.3288,0.3203,0.3197,0.3153,0.3092,0.3084,0.3202,0.3292,0.3398,0.3518,0.3703,0.3874,0.3814,0.3738,0.3708,0.3446,0.3409,0.3967,0.382,0.3635,0.3636,0.3636,0.3636,0.3636,0.3636,0.3483,0.3423,0.337,0.3205,0.3124,0.2979,0.2927,0.2868,0.2891,0.288,0.2894,0.2993,0.3177,0.33,0.3266,0.3238,0.301,0.2912,0.2928,0.3249,0.3299,0.3346,0.3184,0.287,0.2869,0.2237,0.2232,0.2228]},{"header":{"parameterUnit":"m.s-1","parameterCategory":2,"la1":30.2991,"la2":30.254,"lo1":-89.0895,"lo2":-89.0444,"dy":0.0017,"dx":0.0017,"nx":28,"ny":28,"refTime":"2023-08-19T03:00:00:Z","depth":"0","parameterNumber":3,"parameterNumberName":"V-component_of_CURRENTS"},"data":[0,0,0,0,0,0,0,0,0,0,0,0,0,0,0,0,0,0,0,0,0,0,0,0,0,0,0,0,0,0,0,0,0,0,0,0,0,0,0,0,0,0,0,0,0,0,0,0,0,0,0,0,0,0,0,0,0,0,0.0915,0.0914,0,0.09,0.09,0.09,0.0839,0.0837,0.0835,0.0833,0.0702,0.07,0.0698,0,0,0,0,0,0,0,0,0,0,0,0,0,0.0983,0.0982,0.0915,0.0914,0.0914,0.09,0.09,0.09,0.0839,0.0837,0.0835,0.0833,0.0702,0.07,0.0698,0,0,0,0,0,0,0,0,0,0,0,0,0,0.0962,0.0981,0.0915,0.0879,0.0875,0.09,0.09,0.09,0.0839,0.0837,0.0834,0.0832,0.0703,0.07,0.0698,0.0733,0,0,0.0689,0.0688,0,0,0,0,0,0,0,0,0.0963,0.096,0.0885,0.0882,0.0877,0.0865,0.0875,0.0837,0.084,0.0857,0.0833,0.083,0.0745,0.0739,0.0749,0.0727,0.0721,0.0689,0.0687,0.0686,0.0685,0,0,0,0,0,0,0,0.0965,0.0961,0.0913,0.0884,0.088,0.0895,0.0889,0.0869,0.0817,0.0855,0.085,0.0843,0.0742,0.0752,0.0745,0.0719,0.0689,0.0686,0.0685,0.0684,0.0696,0.0698,0,0,0,0,0,0,0.0957,0.0962,0.0913,0.0912,0.0911,0.0895,0.0888,0.0875,0.0819,0.0808,0.0846,0.084,0.0758,0.0748,0.0739,0.078,0.0686,0.0683,0.0682,0.0694,0.0696,0.0698,0,0,0,0,0,0,0.0959,0.0953,0.0913,0.0934,0.093,0.0896,0.0882,0.0876,0.0883,0.0812,0.0799,0.0858,0.0755,0.0743,0.0745,0.0774,0.0682,0.0679,0.0691,0.0694,0.0697,0.0859,0,0,0,0,0,0,0.0961,0.0954,0.0962,0.0933,0.0928,0.0943,0.0884,0.0877,0.0881,0.0875,0.0819,0.0804,0.0752,0.075,0.0742,0.0768,0.0677,0.0689,0.0693,0.0696,0.0851,0.0868,0.0881,0,0,0,0,0,0.0963,0.0988,0.0962,0.0957,0.0933,0.0944,0.0945,0.0914,0.0885,0.0908,0.0874,0.0806,0.0766,0.0751,0.0741,0.0766,0.0687,0.0692,0.0696,0.0845,0.0864,0.0881,0,0,0,0,0,0,0.1045,0.0983,0.0954,0.0963,0.0957,0.0932,0.0954,0.0931,0.0927,0.0915,0.0846,0.0831,0.0842,0.0789,0.0772,0.078,0.071,0.0713,0.0826,0.0844,0.0859,0.0851,0.0675,0,0,0,0,0,0.1061,0.1045,0.1008,0.1021,0.1017,0.0989,0.0995,0.0971,0.0954,0.095,0.0917,0.0877,0.0858,0.0838,0.0816,0.0829,0.0772,0.0834,0.0849,0.0862,0.0849,0.0811,0.0821,0.0713,0.0713,0.0713,0,0,0.1094,0.1062,0.1054,0.1035,0.1025,0.1045,0.0988,0.1001,0.102,0.0936,0.0969,0.0936,0.0876,0.0893,0.089,0.0848,0.0871,0.0868,0.088,0.0858,0.0817,0.0827,0.0836,0.0716,0.0716,0.0715,0,0,0.1152,0.1128,0.1128,0.1132,0.1114,0.1103,0.111,0.1096,0.1092,0.112,0.1063,0.1054,0.1031,0.0996,0.0971,0.1054,0.096,0.1042,0.1102,0.1067,0.1075,0.1081,0.1059,0.1062,0.104,0.104,0.104,0,0.119,0.1188,0.1144,0.116,0.1172,0.1133,0.1163,0.117,0.1164,0.1167,0.1145,0.1123,0.1078,0.1077,0.1103,0.1087,0.1051,0.1043,0.1086,0.1091,0.1095,0.1069,0.107,0.1049,0.1048,0.1047,0.1046,0,0.1234,0.1255,0.1271,0.1261,0.1279,0.1307,0.1294,0.1319,0.131,0.13,0.1313,0.1271,0.1246,0.1238,0.1193,0.12,0.1164,0.1121,0.1042,0.1115,0.1084,0.1082,0.1061,0.1058,0.1055,0.1053,0,0,0.1246,0.1286,0.129,0.1314,0.1332,0.1346,0.1397,0.1416,0.1442,0.1438,0.1469,0.1439,0.1404,0.1373,0.1321,0.1281,0.1296,0.1216,0.121,0.1195,0.1228,0.1183,0.1176,0.1259,0.1259,0.1259,0.1209,0,0.1288,0.1342,0.135,0.1426,0.146,0.1462,0.1515,0.1529,0.1541,0.1574,0.1519,0.1533,0.146,0.1457,0.1413,0.1331,0.1292,0.1313,0.1154,0.115,0.1102,0.1172,0.1134,0.1083,0.1206,0.1205,0.1205,0,0.1312,0.1349,0.1422,0.1502,0.1514,0.1556,0.1614,0.1656,0.1686,0.1696,0.1691,0.166,0.1629,0.1552,0.1436,0.1454,0.135,0.127,0.1266,0.1155,0.11,0.1021,0.1074,0.0822,0.1201,0.1201,0.1201,0,0.1316,0.14,0.1459,0.1485,0.1566,0.1599,0.1639,0.1685,0.173,0.1773,0.181,0.1765,0.1752,0.1629,0.1486,0.1462,0.1345,0.1293,0.1149,0.1146,0.1043,0.103,0.0826,0.1188,0.1189,0.1189,0.1189,0,0.1348,0.1399,0.1466,0.1499,0.1575,0.1621,0.1697,0.1739,0.181,0.1874,0.1867,0.1902,0.1765,0.1692,0.1536,0.1355,0.1387,0.1166,0.1129,0.1103,0.1097,0.0812,0.0739,0.1187,0.1187,0.1188,0.1188,0,0.1345,0.1395,0.1467,0.1551,0.1581,0.1628,0.1731,0.1793,0.1862,0.1952,0.1977,0.2002,0.1922,0.1773,0.1585,0.1424,0.1138,0.1167,0.1157,0.1119,0.0742,0.0683,0.0503,0.0448,0.1008,0.1007,0.1006,0,0.1341,0.1381,0.148,0.1524,0.1563,0.1642,0.1707,0.1802,0.1884,0.2008,0.2062,0.2042,0.2039,0.1783,0.1513,0.126,0.1081,0.1028,0.096,0.0717,0.0624,0.0591,0.0557,0.0904,0.0902,0.09,0.0899,0,0.1332,0.1368,0.1424,0.1516,0.1589,0.1686,0.1793,0.1867,0.1994,0.209,0.2196,0.221,0.2,0.1747,0.1416,0.1225,0.0893,0.0985,0.0727,0.0522,0.0479,0.0411,0.0949,0.0885,0.0886,0.0887,0.0888,0.0888,0.1304,0.134,0.1415,0.1502,0.1602,0.173,0.1804,0.194,0.208,0.2245,0.2266,0.2293,0.1914,0.1474,0.1213,0.066,0.0758,0.0459,0.0412,0.0401,0.0329,0.0845,0.0739,0.0739,0.074,0.074,0.074,0,0.1258,0.1318,0.1398,0.1513,0.1617,0.1687,0.1864,0.1959,0.2122,0.2267,0.2363,0.2125,0.1659,0.1187,0.0494,0.0128,0.0051,-0.0071,-0.016,-0.0162,0.026,0.0228,0.0014,0.0014,0.0014,0.0015,0.0015,0.0015,0.1239,0.129,0.1347,0.1492,0.1587,0.1729,0.1831,0.2002,0.2136,0.2261,0.2244,0.2233,0.181,0.0565,-0.029,-0.0449,-0.0652,-0.0679,-0.0756,-0.0545,-0.0501,-0.0459,-0.0514,-0.0881,-0.0882,-0.1168,-0.1171,-0.1174]}],[{"header":{"parameterUnit":"m.s-1","parameterCategory":2,"la1":30.2991,"la2":30.254,"lo1":-89.0895,"lo2":-89.0444,"dy":0.0017,"dx":0.0017,"nx":28,"ny":28,"refTime":"2023-08-19T03:00:00:Z","depth":"2","parameterNumber":2,"parameterNumberName":"U-component_of_CURRENTS"},"data":[0,0,0,0,0,0,0,0,0,0,0,0,0,0,0,0,0,0,0,0,0,0,0,0,0,0,0,0,0,0,0,0,0,0,0,0,0,0,0,0,0,0,0,0,0,0,0,0,0,0,0,0,0,0,0,0,0,0,0.2718,0.2719,0,0.2849,0.285,0.2852,0.2991,0.2993,0.2995,0.2997,0.3127,0.3129,0.3131,0,0,0,0,0,0,0,0,0,0,0,0,0,0.2642,0.2643,0.2718,0.272,0.2721,0.2848,0.285,0.2852,0.2991,0.2993,0.2995,0.2998,0.3127,0.3129,0.3131,0,0,0,0,0,0,0,0,0,0,0,0,0,0.2714,0.2643,0.2718,0.2805,0.2814,0.2848,0.285,0.2853,0.299,0.2993,0.2996,0.2999,0.3126,0.3129,0.3131,0.3089,0,0,0.3139,0.314,0,0,0,0,0,0,0,0,0.271,0.2717,0.2791,0.2799,0.281,0.2906,0.2872,0.2931,0.299,0.2924,0.2997,0.3,0.3051,0.306,0.3079,0.3095,0.31,0.3139,0.314,0.3142,0.3142,0,0,0,0,0,0,0,0.2705,0.2713,0.277,0.2792,0.2804,0.2857,0.287,0.2884,0.297,0.293,0.294,0.2953,0.3057,0.3076,0.3083,0.3102,0.3139,0.3141,0.3143,0.3144,0.3251,0.3252,0,0,0,0,0,0,0.2681,0.2707,0.2766,0.2774,0.2765,0.2855,0.287,0.2873,0.297,0.2988,0.295,0.2959,0.307,0.308,0.3088,0.3128,0.3142,0.3144,0.3145,0.3249,0.3251,0.3253,0,0,0,0,0,0,0.2679,0.2685,0.2761,0.2744,0.2758,0.2853,0.2855,0.2874,0.2938,0.2986,0.3004,0.3001,0.3073,0.3084,0.3147,0.3131,0.3145,0.3147,0.3248,0.325,0.3252,0.3153,0,0,0,0,0,0,0.2676,0.2683,0.2678,0.2742,0.2758,0.2807,0.2853,0.2874,0.2938,0.2952,0.3034,0.3047,0.3076,0.3143,0.3149,0.3134,0.3149,0.3246,0.3249,0.3251,0.3154,0.3151,0.3148,0,0,0,0,0,0.2673,0.2615,0.2677,0.2684,0.2747,0.2807,0.2821,0.2899,0.2938,0.2968,0.3031,0.3047,0.3164,0.3145,0.3153,0.3138,0.3245,0.3248,0.3251,0.3156,0.3152,0.3148,0,0,0,0,0,0,0.2493,0.2627,0.2695,0.266,0.2757,0.2832,0.2832,0.2911,0.2982,0.2998,0.3055,0.3072,0.3139,0.3155,0.3134,0.3185,0.3209,0.3214,0.3134,0.3131,0.3128,0.3198,0.3151,0,0,0,0,0,0.2473,0.2536,0.2635,0.2624,0.2653,0.2761,0.2794,0.2873,0.294,0.2978,0.3036,0.3094,0.3146,0.3154,0.3218,0.3212,0.3262,0.3217,0.3213,0.321,0.3278,0.3375,0.3387,0.3262,0.3262,0.3262,0,0,0.2414,0.2484,0.2523,0.2605,0.2667,0.2725,0.2788,0.2847,0.2913,0.2973,0.3048,0.3105,0.3159,0.3188,0.3212,0.3194,0.3244,0.3214,0.321,0.3282,0.3379,0.3392,0.3402,0.3264,0.3264,0.3264,0,0,0.2357,0.2373,0.2447,0.2513,0.2634,0.2691,0.2721,0.2832,0.2892,0.2996,0.3043,0.3111,0.3182,0.3205,0.3227,0.3247,0.3259,0.3237,0.3231,0.332,0.3331,0.3342,0.3291,0.3299,0.3193,0.3192,0.3192,0,0.2305,0.2371,0.2463,0.2527,0.257,0.268,0.2741,0.2798,0.2931,0.2979,0.303,0.3189,0.3212,0.3244,0.3245,0.324,0.3253,0.3219,0.3314,0.3327,0.3341,0.3288,0.3298,0.3188,0.3188,0.3189,0.3189,0,0.2335,0.2376,0.2381,0.2538,0.259,0.2634,0.2738,0.2803,0.2901,0.2992,0.3116,0.3182,0.3288,0.326,0.326,0.332,0.3279,0.3323,0.3313,0.3347,0.3287,0.3299,0.3182,0.3183,0.3185,0.3186,0,0,0.2307,0.2406,0.2426,0.2475,0.2597,0.2639,0.2714,0.2826,0.289,0.3036,0.3145,0.3224,0.3298,0.3334,0.3321,0.3359,0.3385,0.336,0.3366,0.329,0.3483,0.3225,0.3212,0.3439,0.3443,0.3447,0.3354,0,0.2339,0.2399,0.2482,0.2551,0.2569,0.2671,0.272,0.2833,0.2951,0.3063,0.3171,0.3278,0.3303,0.3341,0.3402,0.344,0.3436,0.3401,0.3485,0.3486,0.3241,0.3228,0.3045,0.2933,0.3366,0.3368,0.337,0,0.2404,0.2416,0.2457,0.2529,0.2554,0.2632,0.2739,0.2818,0.2969,0.3062,0.3219,0.3322,0.3416,0.3449,0.3563,0.3537,0.3523,0.3527,0.3525,0.3361,0.3257,0.3002,0.2939,0.3391,0.3389,0.3388,0.3386,0,0.2321,0.2427,0.2437,0.246,0.2541,0.2614,0.2701,0.2836,0.2896,0.3086,0.3168,0.3343,0.3423,0.3539,0.3558,0.3584,0.3643,0.3681,0.3413,0.3388,0.3298,0.3258,0.3764,0.3764,0.3764,0.3765,0.3765,0,0.2282,0.2302,0.241,0.2389,0.2469,0.2564,0.2675,0.2781,0.2916,0.299,0.3175,0.3247,0.3468,0.3523,0.3568,0.3495,0.3659,0.3427,0.3381,0.3237,0.3195,0.3691,0.3684,0.3761,0.3762,0.3762,0.3763,0,0.2176,0.2211,0.2247,0.2352,0.2421,0.2487,0.2672,0.2731,0.2854,0.2969,0.3029,0.3189,0.3269,0.3371,0.3482,0.3432,0.343,0.3335,0.3064,0.2987,0.3104,0.3094,0.3089,0.3079,0.3072,0.3065,0.306,0,0.2126,0.2126,0.2243,0.228,0.2351,0.2474,0.2556,0.2706,0.2764,0.2909,0.2939,0.3038,0.3099,0.3098,0.3041,0.3006,0.3179,0.2749,0.2798,0.3096,0.3052,0.3053,0.3053,0.2589,0.2581,0.2573,0.2568,0,0.2051,0.2104,0.2097,0.22,0.2302,0.2395,0.2531,0.2542,0.2685,0.2749,0.2814,0.2876,0.2846,0.2739,0.2605,0.2567,0.2767,0.259,0.305,0.2761,0.2612,0.2572,0.2592,0.2503,0.251,0.2514,0.2518,0.252,0.2018,0.2035,0.2062,0.217,0.2254,0.2314,0.235,0.2446,0.2491,0.2522,0.2599,0.2599,0.2553,0.2283,0.2189,0.2094,0.2257,0.2225,0.2256,0.2293,0.2225,0.2069,0.1837,0.1839,0.1842,0.1843,0.1845,0,0.2003,0.2036,0.2071,0.2128,0.2168,0.2286,0.233,0.2313,0.2352,0.2325,0.2351,0.2075,0.1959,0.1969,0.1721,0.1619,0.1698,0.1592,0.1755,0.1814,0.1868,0.179,0.1281,0.128,0.1279,0.1278,0,0,0.1978,0.1963,0.1991,0.2049,0.213,0.2165,0.218,0.2161,0.2124,0.1959,0.1887,0.1881,0.1923,0.1608,0.1503,0.1405,0.1625,0.1342,0.1786,0.2041,0.2096,0.22,0.2137,0,0,0,0,0]},{"header":{"parameterUnit":"m.s-1","parameterCategory":2,"la1":30.2991,"la2":30.254,"lo1":-89.0895,"lo2":-89.0444,"dy":0.0017,"dx":0.0017,"nx":28,"ny":28,"refTime":"2023-08-19T03:00:00:Z","depth":"2","parameterNumber":3,"parameterNumberName":"V-component_of_CURRENTS"},"data":[0,0,0,0,0,0,0,0,0,0,0,0,0,0,0,0,0,0,0,0,0,0,0,0,0,0,0,0,0,0,0,0,0,0,0,0,0,0,0,0,0,0,0,0,0,0,0,0,0,0,0,0,0,0,0,0,0,0,0.007,0.0068,0,0.0025,0.0026,0.0027,0.0117,0.0118,0.0119,0.012,0.0102,0.0101,0.01,0,0,0,0,0,0,0,0,0,0,0,0,0,0.0203,0.0202,0.007,0.0068,0.0065,0.0025,0.0026,0.0028,0.0117,0.0118,0.0119,0.012,0.0103,0.0101,0.01,0,0,0,0,0,0,0,0,0,0,0,0,0,0.0171,0.0202,0.0071,0.0089,0.0088,0.0024,0.0026,0.0028,0.0116,0.0118,0.0119,0.0121,0.0103,0.0101,0.0099,0.0059,0,0,0.0093,0.0092,0,0,0,0,0,0,0,0,0.0173,0.0169,0.0088,0.0087,0.0086,0.0059,0.0065,0.0032,0.0116,0.0129,0.012,0.0121,0.0075,0.0076,0.0095,0.0058,0.0057,0.0093,0.0092,0.0091,0.0091,0,0,0,0,0,0,0,0.0175,0.0171,0.0074,0.0085,0.0083,0.0086,0.0087,0.0061,0.0112,0.0128,0.0129,0.0089,0.0078,0.0096,0.0094,0.0057,0.0093,0.0091,0.009,0.0089,0.0087,0.0088,0,0,0,0,0,0,0.0137,0.0173,0.0075,0.0071,0.0109,0.0082,0.0083,0.0084,0.0112,0.0111,0.0087,0.0092,0.0099,0.0097,0.0094,0.0075,0.0091,0.0089,0.0088,0.0086,0.0087,0.0089,0,0,0,0,0,0,0.0141,0.013,0.0077,0.0101,0.0092,0.0076,0.0078,0.0082,0.0132,0.0076,0.0081,0.0134,0.01,0.0097,0.0112,0.0074,0.0088,0.0086,0.0085,0.0087,0.0088,0.0018,0,0,0,0,0,0,0.0146,0.0134,0.0144,0.01,0.0088,0.0077,0.0074,0.0079,0.0092,0.01,0.0116,0.0115,0.0101,0.0115,0.011,0.0071,0.0085,0.0083,0.0086,0.0088,0.0019,0.0018,0.0016,0,0,0,0,0,0.0152,0.0137,0.0147,0.0133,0.0098,0.0076,0.0076,0.0081,0.0093,0.0133,0.0138,0.0116,0.0125,0.0114,0.0108,0.0068,0.0082,0.0085,0.0087,0.002,0.0018,0.0016,0,0,0,0,0,0,0.0142,0.014,0.0151,0.0123,0.012,0.0084,0.009,0.0097,0.0136,0.0154,0.0127,0.0127,0.0139,0.0126,0.0114,0.0084,0.01,0.0102,0.0051,0.0049,0.0048,0.0192,0.0083,0,0,0,0,0,0.0152,0.0192,0.0154,0.0139,0.0138,0.013,0.0124,0.0139,0.0137,0.016,0.0153,0.015,0.0137,0.0115,0.0131,0.0089,0.0093,0.0067,0.0065,0.0064,0.0183,0.0123,0.0126,0.0097,0.0097,0.0097,0,0,0.0145,0.0138,0.0161,0.0149,0.0149,0.0162,0.014,0.0149,0.0175,0.0144,0.0189,0.0166,0.0143,0.0122,0.0119,0.0098,0.0054,0.0067,0.0064,0.0189,0.0126,0.0129,0.0131,0.0099,0.0099,0.0098,0,0,0.0152,0.0148,0.0205,0.0212,0.0211,0.0197,0.0207,0.0203,0.0232,0.0271,0.0231,0.0219,0.0208,0.016,0.0137,0.0144,0.0078,0.0102,0.0161,0.0094,0.0097,0.0099,0.0009,0.0004,0.0059,0.0058,0.0058,0,0.0156,0.0196,0.0206,0.0243,0.0245,0.022,0.0262,0.0268,0.0273,0.0296,0.031,0.0302,0.0254,0.0193,0.0193,0.014,0.0086,0.0142,0.0089,0.0092,0.0096,0.0004,-0.0,0.0055,0.0056,0.0056,0.0056,0,0.0215,0.0247,0.0259,0.0325,0.0336,0.0355,0.0348,0.0378,0.0402,0.0408,0.0434,0.0383,0.039,0.0303,0.0259,0.021,0.0153,0.011,0.0083,0.0094,-0.0004,-0.0008,0.0051,0.0052,0.0053,0.0054,0,0,0.0262,0.0306,0.0327,0.0368,0.0389,0.0402,0.0441,0.047,0.0511,0.0527,0.0587,0.0525,0.0514,0.0497,0.0369,0.0289,0.0192,0.021,0.0207,0.0106,0.0015,-0.0067,-0.008,0.0096,0.0098,0.0099,-0.0102,0,0.0326,0.0391,0.042,0.0493,0.0512,0.0528,0.0552,0.058,0.0621,0.0664,0.0619,0.064,0.0563,0.0541,0.0461,0.0297,0.02,0.0253,0.0044,0.0041,-0.0048,-0.0078,-0.002,-0.0193,-0.0105,-0.0106,-0.0106,0,0.0407,0.0431,0.0499,0.0562,0.0584,0.0636,0.0708,0.0744,0.0774,0.0809,0.0839,0.0819,0.0743,0.0682,0.0464,0.0486,0.0306,0.016,0.0145,0.0139,-0.0042,-0.0165,-0.0203,-0.0112,-0.0111,-0.0111,-0.0111,0,0.0412,0.0509,0.0557,0.0579,0.0624,0.0701,0.0757,0.0804,0.0849,0.0922,0.0966,0.0912,0.0874,0.0714,0.0455,0.0455,0.0191,0.0132,-0.0114,-0.0127,-0.0058,-0.0065,0.0013,0.0013,0.0014,0.0014,0.0015,0,0.0436,0.0486,0.0578,0.0594,0.0703,0.0747,0.0876,0.092,0.0987,0.1041,0.1048,0.1052,0.0885,0.0715,0.0498,0.0183,0.0215,-0.0042,-0.0157,-0.0094,-0.0101,0.0025,0.0029,0.0007,0.0008,0.001,0.0011,0,0.0408,0.0442,0.0518,0.0629,0.0693,0.0784,0.096,0.1034,0.1081,0.1163,0.1191,0.1135,0.094,0.0702,0.0389,0.0201,-0.0076,-0.0221,-0.0142,-0.0239,-0.0356,-0.0353,-0.0439,-0.0442,-0.0446,-0.0449,-0.0451,0,0.0387,0.0415,0.0569,0.0637,0.071,0.0864,0.096,0.1073,0.1154,0.1192,0.1215,0.1085,0.0994,0.0519,0.0188,-0.0189,-0.0227,-0.0407,-0.0346,-0.0285,-0.039,-0.0381,-0.0374,-0.034,-0.0342,-0.0343,-0.0344,0,0.0368,0.0433,0.0492,0.0639,0.0778,0.0931,0.1097,0.1161,0.1263,0.1308,0.1313,0.1256,0.0862,0.0526,0.0013,-0.022,-0.0309,-0.0441,-0.0408,-0.0228,-0.0207,-0.0305,-0.0298,-0.0353,-0.0352,-0.0351,-0.0351,-0.035,0.0375,0.0437,0.0534,0.0678,0.0829,0.0994,0.1122,0.1273,0.1387,0.1448,0.135,0.1251,0.0859,0.0233,-0.0114,-0.0423,-0.0434,-0.0535,-0.0526,-0.0517,-0.0461,-0.0446,-0.0629,-0.063,-0.063,-0.0631,-0.0631,0,0.0397,0.0469,0.0584,0.0755,0.0912,0.101,0.1202,0.1324,0.1494,0.1467,0.1463,0.1048,0.066,0.0274,-0.0188,-0.0508,-0.0457,-0.0578,-0.044,-0.0433,-0.0425,-0.0357,-0.0503,-0.0503,-0.0503,-0.0503,0,0,0.0404,0.0494,0.0565,0.0802,0.0944,0.1164,0.1283,0.1467,0.1519,0.1499,0.1401,0.116,0.0696,0.0359,-0.004,-0.0244,-0.0247,-0.0272,-0.0353,-0.0137,-0.0124,-0.0396,-0.0284,0,0,0,0,0]}],[{"header":{"parameterUnit":"m.s-1","parameterCategory":2,"la1":30.2991,"la2":30.254,"lo1":-89.0895,"lo2":-89.0444,"dy":0.0017,"dx":0.0017,"nx":28,"ny":28,"refTime":"2023-08-19T03:00:00:Z","depth":"4","parameterNumber":2,"parameterNumberName":"U-component_of_CURRENTS"},"data":[0,0,0,0,0,0,0,0,0,0,0,0,0,0,0,0,0,0,0,0,0,0,0,0,0,0,0,0,0,0,0,0,0,0,0,0,0,0,0,0,0,0,0,0,0,0,0,0,0,0,0,0,0,0,0,0,0,0,0.041,0.0411,0,0.0457,0.0457,0.0457,0.0483,0.0484,0.0485,0.0485,0.0515,0.0515,0.0515,0,0,0,0,0,0,0,0,0,0,0,0,0,0.0324,0.0324,0.041,0.0411,0.0413,0.0457,0.0457,0.0457,0.0483,0.0484,0.0485,0.0486,0.0515,0.0515,0.0515,0,0,0,0,0,0,0,0,0,0,0,0,0,0.0357,0.0325,0.041,0.0437,0.0441,0.0457,0.0457,0.0457,0.0483,0.0484,0.0485,0.0486,0.0515,0.0515,0.0515,0.0488,0,0,0.0515,0.0515,0,0,0,0,0,0,0,0,0.0355,0.0359,0.0432,0.0436,0.044,0.0473,0.0438,0.0469,0.0482,0.0458,0.0485,0.0487,0.0504,0.0505,0.0499,0.049,0.0491,0.0515,0.0515,0.0515,0.0515,0,0,0,0,0,0,0,0.0352,0.0357,0.042,0.0434,0.0438,0.0442,0.0447,0.0443,0.0466,0.046,0.0464,0.0483,0.0505,0.0499,0.05,0.0492,0.0515,0.0515,0.0515,0.0515,0.0555,0.0556,0,0,0,0,0,0,0.0364,0.0355,0.0418,0.0422,0.0409,0.0443,0.0448,0.0454,0.0466,0.0472,0.0482,0.0484,0.0498,0.05,0.0501,0.0553,0.0515,0.0515,0.0515,0.0553,0.0555,0.0556,0,0,0,0,0,0,0.0361,0.0368,0.0417,0.0397,0.0405,0.0444,0.0449,0.0454,0.0482,0.0485,0.0489,0.0509,0.0499,0.0501,0.0526,0.0551,0.0515,0.0515,0.0552,0.0554,0.0555,0.0603,0,0,0,0,0,0,0.0358,0.0366,0.0383,0.0397,0.0407,0.044,0.0449,0.0455,0.0494,0.0497,0.0509,0.0511,0.05,0.0526,0.0526,0.055,0.0515,0.0551,0.0553,0.0555,0.06,0.0606,0.0611,0,0,0,0,0,0.0355,0.0369,0.0383,0.0393,0.0425,0.0442,0.0445,0.0472,0.0494,0.0501,0.0519,0.0512,0.0539,0.0527,0.0527,0.0551,0.055,0.0552,0.0555,0.0598,0.0605,0.0611,0,0,0,0,0,0,0.0345,0.0375,0.039,0.0415,0.0437,0.045,0.0472,0.0489,0.0507,0.0523,0.0521,0.0524,0.0551,0.0547,0.0533,0.057,0.0545,0.0548,0.0578,0.0585,0.059,0.0602,0.0515,0,0,0,0,0,0.0351,0.0367,0.0395,0.0417,0.0433,0.0458,0.0476,0.0493,0.0511,0.0522,0.0544,0.0558,0.0553,0.0569,0.0564,0.0587,0.0572,0.0605,0.0611,0.0615,0.0625,0.0601,0.0605,0.0564,0.0564,0.0564,0,0,0.0354,0.0376,0.0386,0.0417,0.0438,0.0465,0.047,0.0505,0.0533,0.0521,0.0579,0.0575,0.0561,0.0581,0.0595,0.0589,0.0623,0.0618,0.0622,0.063,0.0604,0.0608,0.0611,0.0566,0.0565,0.0565,0,0,0.0366,0.039,0.0409,0.0428,0.0472,0.0488,0.0507,0.0545,0.057,0.0614,0.0606,0.062,0.0647,0.0632,0.0624,0.066,0.0644,0.0672,0.072,0.0697,0.07,0.0702,0.0704,0.0706,0.0685,0.0685,0.0685,0,0.0372,0.0403,0.0418,0.0444,0.0471,0.0505,0.0535,0.0557,0.0605,0.0626,0.0648,0.0674,0.0665,0.0661,0.0681,0.0671,0.0669,0.0694,0.0703,0.0705,0.0706,0.0707,0.0709,0.0688,0.0688,0.0687,0.0687,0,0.0392,0.0429,0.0445,0.0489,0.0512,0.0545,0.0581,0.0628,0.0679,0.0697,0.0733,0.0725,0.0744,0.074,0.0727,0.0735,0.0734,0.0701,0.0683,0.0713,0.0713,0.0713,0.0692,0.0691,0.069,0.0689,0,0,0.037,0.0445,0.0454,0.0485,0.0542,0.0559,0.0621,0.0669,0.0714,0.0761,0.0804,0.0803,0.0814,0.0806,0.0788,0.0778,0.0788,0.0764,0.0762,0.0763,0.0765,0.0758,0.0758,0.0761,0.0761,0.0761,0.0767,0,0.0388,0.0447,0.0478,0.0538,0.0573,0.062,0.0668,0.0713,0.0766,0.0819,0.0814,0.0845,0.0831,0.0852,0.0838,0.0799,0.0791,0.0792,0.074,0.0739,0.0725,0.0758,0.0762,0.0767,0.0767,0.0767,0.0767,0,0.039,0.0438,0.0499,0.0573,0.0592,0.0638,0.0724,0.077,0.0832,0.0871,0.0906,0.0911,0.092,0.0896,0.0863,0.0872,0.0833,0.0797,0.0795,0.0772,0.0732,0.0727,0.0768,0.0768,0.0768,0.0768,0.0768,0,0.0355,0.0443,0.0498,0.0521,0.061,0.0662,0.0725,0.0798,0.0841,0.0918,0.0959,0.0964,0.0989,0.094,0.0897,0.089,0.0845,0.0814,0.0765,0.0764,0.0746,0.0743,0.0772,0.0772,0.0772,0.0772,0.0772,0,0.0345,0.0384,0.0501,0.0524,0.0598,0.0666,0.0748,0.0812,0.0897,0.0927,0.099,0.0992,0.1004,0.0981,0.0917,0.086,0.0862,0.0787,0.0765,0.077,0.0769,0.0747,0.0744,0.0772,0.0772,0.0772,0.0772,0,0.0281,0.0359,0.0415,0.0534,0.0581,0.0634,0.0767,0.0816,0.0918,0.0966,0.0997,0.1042,0.1028,0.1017,0.0945,0.0901,0.0827,0.079,0.0828,0.0805,0.0762,0.0762,0.0763,0.0763,0.0763,0.0762,0.0762,0,0.0254,0.0283,0.0402,0.045,0.0515,0.062,0.0685,0.0811,0.0853,0.095,0.0945,0.1,0.1007,0.0924,0.09,0.084,0.0802,0.0795,0.0763,0.0783,0.0761,0.0761,0.0761,0.0762,0.0762,0.0762,0.0762,0,0.0191,0.0233,0.0277,0.0388,0.0473,0.0555,0.0663,0.0682,0.08,0.0896,0.0899,0.0913,0.0907,0.0878,0.0876,0.0793,0.0826,0.0793,0.0792,0.0761,0.0782,0.076,0.076,0.0761,0.0761,0.0761,0.0761,0,0.013,0.014,0.0216,0.0312,0.0412,0.0479,0.0538,0.0609,0.0676,0.0798,0.0765,0.0809,0.0867,0.0847,0.079,0.079,0.0769,0.0742,0.0744,0.0745,0.0737,0.0761,0.0725,0,0,0,0,0,0.0064,0.0084,0.0149,0.0249,0.035,0.0426,0.0517,0.0571,0.0666,0.066,0.0736,0.072,0.0735,0.0728,0.072,0.0756,0.075,0.0744,0.0715,0.0758,0.0758,0.0752,0,0,0,0,0,0,0.0025,0.0061,0.011,0.02,0.0265,0.0372,0.0426,0.0487,0.0494,0.0588,0.0582,0.0696,0.0689,0.0736,0.0711,0.0718,0.0692,0.0787,0.0786,0.0757,0.0758,0.0758,0.0752,0,0,0,0,0]},{"header":{"parameterUnit":"m.s-1","parameterCategory":2,"la1":30.2991,"la2":30.254,"lo1":-89.0895,"lo2":-89.0444,"dy":0.0017,"dx":0.0017,"nx":28,"ny":28,"refTime":"2023-08-19T03:00:00:Z","depth":"4","parameterNumber":3,"parameterNumberName":"V-component_of_CURRENTS"},"data":[0,0,0,0,0,0,0,0,0,0,0,0,0,0,0,0,0,0,0,0,0,0,0,0,0,0,0,0,0,0,0,0,0,0,0,0,0,0,0,0,0,0,0,0,0,0,0,0,0,0,0,0,0,0,0,0,0,0,-0.0304,-0.0305,0,-0.0376,-0.0376,-0.0377,-0.043,-0.0431,-0.0432,-0.0433,-0.0584,-0.0588,-0.0591,0,0,0,0,0,0,0,0,0,0,0,0,0,-0.0218,-0.0219,-0.0304,-0.0305,-0.0306,-0.0376,-0.0376,-0.0377,-0.043,-0.0431,-0.0432,-0.0433,-0.0583,-0.0587,-0.0591,0,0,0,0,0,0,0,0,0,0,0,0,0,-0.0266,-0.0219,-0.0304,-0.0344,-0.0348,-0.0376,-0.0376,-0.0377,-0.043,-0.0431,-0.0432,-0.0433,-0.0582,-0.0587,-0.0592,-0.0599,0,0,-0.0607,-0.0609,0,0,0,0,0,0,0,0,-0.0263,-0.0269,-0.0336,-0.0341,-0.0346,-0.0398,-0.0402,-0.0457,-0.043,-0.0395,-0.0433,-0.0434,-0.0531,-0.054,-0.0545,-0.0606,-0.0613,-0.0607,-0.0611,-0.0613,-0.0614,0,0,0,0,0,0,0,-0.026,-0.0266,-0.0329,-0.0338,-0.0344,-0.036,-0.0368,-0.0412,-0.0455,-0.0398,-0.0403,-0.0416,-0.0534,-0.054,-0.0549,-0.0615,-0.0607,-0.0612,-0.0615,-0.0617,-0.0848,-0.0851,0,0,0,0,0,0,-0.0256,-0.0263,-0.0327,-0.0331,-0.031,-0.0361,-0.0369,-0.0378,-0.0453,-0.0465,-0.0415,-0.0418,-0.0531,-0.0544,-0.0555,-0.066,-0.0613,-0.0617,-0.062,-0.0845,-0.0848,-0.0852,0,0,0,0,0,0,-0.0254,-0.0261,-0.0324,-0.0302,-0.0311,-0.0361,-0.037,-0.0378,-0.0415,-0.0465,-0.0479,-0.0447,-0.0532,-0.0548,-0.0618,-0.0663,-0.062,-0.0624,-0.0841,-0.0846,-0.085,-0.0811,0,0,0,0,0,0,-0.0251,-0.0259,-0.0278,-0.0301,-0.0313,-0.0335,-0.037,-0.0379,-0.0421,-0.0427,-0.0497,-0.051,-0.0535,-0.061,-0.0623,-0.0669,-0.0628,-0.0837,-0.0843,-0.0849,-0.0809,-0.0814,-0.0819,0,0,0,0,0,-0.0247,-0.0247,-0.0279,-0.0288,-0.0332,-0.0335,-0.0341,-0.0379,-0.0422,-0.042,-0.0488,-0.0509,-0.0659,-0.0615,-0.063,-0.0678,-0.0834,-0.0841,-0.0848,-0.0806,-0.0813,-0.0819,0,0,0,0,0,0,-0.0216,-0.0253,-0.0288,-0.0302,-0.0323,-0.0345,-0.0358,-0.0394,-0.0444,-0.0473,-0.0525,-0.0542,-0.0624,-0.0665,-0.0617,-0.0772,-0.0761,-0.0771,-0.0724,-0.0731,-0.0736,-0.07,-0.0632,0,0,0,0,0,-0.0221,-0.0237,-0.0269,-0.0284,-0.0295,-0.0339,-0.0356,-0.0384,-0.0427,-0.0451,-0.052,-0.0602,-0.0659,-0.0704,-0.0759,-0.083,-0.0814,-0.0886,-0.0891,-0.0894,-0.0881,-0.089,-0.0891,-0.0875,-0.0875,-0.0875,0,0,-0.0218,-0.0241,-0.0254,-0.0281,-0.0306,-0.0315,-0.0351,-0.0376,-0.0401,-0.0462,-0.0544,-0.0614,-0.0682,-0.0758,-0.0803,-0.0801,-0.089,-0.0903,-0.0905,-0.089,-0.0897,-0.0897,-0.0898,-0.088,-0.0879,-0.0878,0,0,-0.02,-0.0236,-0.0241,-0.0255,-0.0296,-0.0315,-0.0329,-0.0385,-0.0424,-0.0505,-0.056,-0.0642,-0.0765,-0.0799,-0.0834,-0.0905,-0.0908,-0.0969,-0.0969,-0.0977,-0.0976,-0.0975,-0.0928,-0.0923,-0.098,-0.098,-0.098,0,-0.0202,-0.0215,-0.0241,-0.0245,-0.0264,-0.0317,-0.0324,-0.0357,-0.0442,-0.0481,-0.0537,-0.0711,-0.0771,-0.0826,-0.0871,-0.0908,-0.0907,-0.0925,-0.0975,-0.0974,-0.0974,-0.0926,-0.0921,-0.0979,-0.0979,-0.0979,-0.0979,0,-0.0181,-0.0204,-0.0202,-0.0233,-0.0246,-0.0259,-0.0303,-0.0359,-0.0447,-0.0494,-0.0603,-0.0691,-0.0796,-0.0845,-0.0886,-0.0938,-0.0932,-0.0962,-0.0935,-0.0971,-0.0921,-0.0916,-0.0978,-0.0978,-0.0978,-0.0979,0,0,-0.0173,-0.0187,-0.0196,-0.0206,-0.0247,-0.0249,-0.0297,-0.0343,-0.0385,-0.0503,-0.0561,-0.0691,-0.0766,-0.0813,-0.0882,-0.0906,-0.0904,-0.0954,-0.0955,-0.0862,-0.0893,-0.0868,-0.0859,-0.0954,-0.0954,-0.0954,-0.0845,0,-0.0165,-0.0156,-0.0175,-0.0186,-0.0187,-0.0243,-0.0272,-0.0325,-0.0408,-0.0479,-0.0569,-0.066,-0.0741,-0.0821,-0.0853,-0.0901,-0.0899,-0.0929,-0.0911,-0.0909,-0.0846,-0.0856,-0.0954,-0.0841,-0.084,-0.0839,-0.0839,0,-0.0159,-0.0151,-0.0153,-0.0166,-0.0174,-0.0204,-0.027,-0.0303,-0.0386,-0.0455,-0.0553,-0.063,-0.0702,-0.0773,-0.0821,-0.0848,-0.0873,-0.0889,-0.0886,-0.087,-0.0877,-0.0813,-0.083,-0.0831,-0.0831,-0.0832,-0.0833,0,-0.0142,-0.0145,-0.0146,-0.0151,-0.0171,-0.0217,-0.0254,-0.0328,-0.0347,-0.0459,-0.0494,-0.0587,-0.0653,-0.0702,-0.0771,-0.0815,-0.078,-0.0833,-0.0802,-0.0797,-0.0863,-0.0865,-0.0834,-0.0834,-0.0834,-0.0834,-0.0835,0,-0.0131,-0.0135,-0.0152,-0.0156,-0.017,-0.0211,-0.0256,-0.0312,-0.0368,-0.0362,-0.0498,-0.051,-0.0652,-0.0663,-0.072,-0.0731,-0.0737,-0.0781,-0.0776,-0.085,-0.0853,-0.0856,-0.086,-0.083,-0.0831,-0.0832,-0.0833,0,-0.0126,-0.0132,-0.0127,-0.0154,-0.017,-0.0198,-0.0243,-0.0255,-0.0332,-0.0331,-0.0365,-0.045,-0.0497,-0.0565,-0.0621,-0.0656,-0.0669,-0.0661,-0.0675,-0.0675,-0.0685,-0.069,-0.0623,-0.0621,-0.062,-0.0618,-0.0617,0,-0.0116,-0.0119,-0.0125,-0.012,-0.0151,-0.0189,-0.0198,-0.0255,-0.0245,-0.0269,-0.0239,-0.0311,-0.037,-0.0389,-0.0498,-0.0554,-0.0586,-0.0566,-0.0695,-0.0666,-0.0667,-0.0674,-0.068,-0.0615,-0.0615,-0.0615,-0.0614,0,-0.0097,-0.0116,-0.0105,-0.0094,-0.0109,-0.0096,-0.0119,-0.0099,-0.0125,-0.0155,-0.0141,-0.0212,-0.0245,-0.0353,-0.0399,-0.0447,-0.0578,-0.0553,-0.0559,-0.068,-0.0656,-0.066,-0.0668,-0.0609,-0.061,-0.061,-0.0611,0,-0.0089,-0.0076,-0.0066,-0.0062,-0.0047,-0.0025,-0.0044,-0.0027,-0.0026,-0.0043,-0.0018,-0.0112,-0.0176,-0.029,-0.0313,-0.0383,-0.0439,-0.047,-0.0481,-0.0487,-0.0517,-0.0472,-0.0345,0,0,0,0,0,-0.0073,-0.005,-0.0027,-0.0013,0.0007,0.0006,0.0026,0.0015,0.0019,0.0049,0.0006,-0.0027,-0.0143,-0.0204,-0.027,-0.0315,-0.0455,-0.0394,-0.0497,-0.0583,-0.0588,-0.065,0,0,0,0,0,0,-0.005,-0.0027,-0.0013,0.0028,0.0042,0.0065,0.0073,0.007,0.0078,0.0068,0.0003,-0.0031,-0.0152,-0.0105,-0.0268,-0.0292,-0.0363,-0.0454,-0.0455,-0.058,-0.0585,-0.0589,-0.0654,0,0,0,0,0]}]]